Starlink 30251

operational
NORAD ID: 57532 Int'l Des: 2023-115 Owner: SPXS Country: US Constellation: starlink
LEOCIRCULAR

Starlink 30251について

説明を読み込み中...

リアルタイム位置

3D地球を読み込み中...

次回通過

高度履歴

Altitude vs Time

uPlot chart will show altitude changes over time

軌道要素

1 57532U 23115M 25354.56710086 .00000224 00000-0 31644-4 0 9996
2 57532 43.0028 74.5490 0001200 274.7830 85.2875 15.02535064130419
Epoch: Dec 20, 2025 • Age: 10 hours

現在のステータス

高度 559.1 km
速度 7.59 km/s
衛星直下点 21.52°N, 140.01°E
打ち上げ日 Aug 8, 2023
運用期間 2.3 years
タイプ internet

技術仕様

分類 Payload
質量 730.00 kg
乾燥質量 700.00 kg
総質量 730.00 kg
長さ 0.30 m
直径 4.10 m
スパン 29.00 m
形状 Box + pan
製造者 SPXS
バスタイプ Starlink V2M
フェーズステータス In Orbit
所有者/国 SPXS/US

大規模コンステレーション

Loading constellations...